AAL1410 KMIA-KJFK

Flight info

Callsign AAL1410
Flight time 2h 23m
Altitude 37000
Route FOLZZ3 ALYRA PELCN Y309 FLRDA SAGGY CHIEZ Q161 KALDA Q108 SIE CAMRN5
Aircraft B77W/H-SDE1E2E3FGHIJ2J3J4J5M1RWXY/LB1D1

Departure

Time 2026-05-06 19:08
Airport Miami International Airport (KMIA)

Arrival

Time 2026-05-06 21:31
Airport John F. Kennedy International Airport (KJFK)
Time Latitude Longitude Altitude Speed Heading
2026-05-06 18:26 25.79788 -80.27942 21 ft 0 kts 178°
2026-05-06 18:54 25.79802 -80.27942 21 ft 4 kts 179°
2026-05-06 18:55 25.79829 -80.27943 24 ft 4 kts 179°
2026-05-06 18:55 25.79852 -80.27943 21 ft 4 kts 188°
2026-05-06 18:55 25.79872 -80.27936 20 ft 4 kts 223°
2026-05-06 18:55 25.79882 -80.27921 19 ft 4 kts 264°
2026-05-06 18:56 25.79882 -80.27891 19 ft 4 kts 270°
2026-05-06 18:56 25.79882 -80.27881 19 ft 0 kts 267°
2026-05-06 18:59 25.79882 -80.27883 19 ft 1 kts 267°
2026-05-06 19:00 25.79880 -80.27913 19 ft 7 kts 266°
2026-05-06 19:00 25.79880 -80.27969 19 ft 7 kts 276°
2026-05-06 19:00 25.79896 -80.28029 18 ft 9 kts 283°
2026-05-06 19:00 25.79898 -80.28084 18 ft 2 kts 267°
2026-05-06 19:01 25.79897 -80.28103 19 ft 2 kts 267°
2026-05-06 19:01 25.79902 -80.28122 19 ft 3 kts 298°
2026-05-06 19:01 25.79922 -80.28136 18 ft 5 kts 341°
2026-05-06 19:01 25.79973 -80.28145 18 ft 10 kts 352°
2026-05-06 19:02 25.80053 -80.28189 19 ft 14 kts 311°
2026-05-06 19:02 25.80052 -80.28302 23 ft 17 kts 259°
2026-05-06 19:02 25.80033 -80.28443 20 ft 19 kts 265°
2026-05-06 19:02 25.80027 -80.28575 23 ft 16 kts 267°
2026-05-06 19:03 25.80022 -80.28700 26 ft 16 kts 267°
2026-05-06 19:03 25.80016 -80.28824 27 ft 16 kts 267°
2026-05-06 19:03 25.80010 -80.28948 26 ft 16 kts 267°
2026-05-06 19:03 25.80004 -80.29076 27 ft 17 kts 267°
2026-05-06 19:04 25.79998 -80.29214 29 ft 20 kts 268°
2026-05-06 19:04 25.79992 -80.29375 26 ft 22 kts 268°
2026-05-06 19:04 25.79985 -80.29548 18 ft 23 kts 267°
2026-05-06 19:04 25.79978 -80.29722 19 ft 18 kts 268°
2026-05-06 19:05 25.79973 -80.29855 17 ft 14 kts 267°
2026-05-06 19:05 25.79977 -80.29962 16 ft 14 kts 278°
2026-05-06 19:05 25.80002 -80.30058 18 ft 10 kts 288°
2026-05-06 19:05 25.80041 -80.30119 20 ft 9 kts 338°
2026-05-06 19:06 25.80070 -80.30090 19 ft 7 kts 81°
2026-05-06 19:06 25.80072 -80.30074 19 ft 0 kts 84°
2026-05-06 19:07 25.80073 -80.30062 18 ft 8 kts 83°
2026-05-06 19:07 25.80084 -80.29897 17 ft 63 kts 87°
2026-05-06 19:07 25.80129 -80.28660 27 ft 174 kts 87°
2026-05-06 19:07 25.80172 -80.27173 531 ft 192 kts 87°
2026-05-06 19:08 25.80225 -80.25742 1637 ft 186 kts 99°
2026-05-06 19:08 25.79744 -80.24319 1974 ft 213 kts 117°
2026-05-06 19:08 25.78991 -80.22754 2197 ft 247 kts 116°
2026-05-06 19:08 25.78189 -80.21021 2912 ft 258 kts 116°
2026-05-06 19:09 25.77361 -80.19227 3791 ft 264 kts 116°
2026-05-06 19:09 25.76509 -80.17404 4687 ft 269 kts 118°
2026-05-06 19:09 25.75606 -80.15568 5624 ft 273 kts 118°
2026-05-06 19:09 25.74689 -80.13710 6509 ft 276 kts 116°
2026-05-06 19:10 25.74207 -80.11651 7204 ft 283 kts 88°
2026-05-06 19:10 25.74723 -80.09557 8015 ft 287 kts 60°
2026-05-06 19:10 25.75934 -80.07807 8712 ft 289 kts 49°
2026-05-06 19:10 25.77277 -80.06100 9399 ft 297 kts 49°
2026-05-06 19:11 25.78660 -80.04369 10163 ft 302 kts 48°
2026-05-06 19:11 25.80091 -80.02581 10642 ft 321 kts 47°
2026-05-06 19:11 25.81638 -80.00647 10861 ft 348 kts 47°
2026-05-06 19:11 25.83302 -79.98561 11088 ft 373 kts 47°
2026-05-06 19:12 25.85038 -79.96370 11809 ft 381 kts 47°
2026-05-06 19:12 25.86789 -79.94151 12830 ft 382 kts 47°
2026-05-06 19:12 25.88545 -79.91918 13835 ft 385 kts 46°
2026-05-06 19:12 25.90318 -79.89664 14686 ft 391 kts 46°
2026-05-06 19:13 25.92118 -79.87375 15495 ft 396 kts 46°
2026-05-06 19:13 25.93939 -79.85055 16302 ft 401 kts 46°
2026-05-06 19:13 25.95782 -79.82704 17112 ft 405 kts 45°
2026-05-06 19:13 25.97644 -79.80330 17858 ft 409 kts 45°
2026-05-06 19:14 25.99526 -79.77930 18573 ft 414 kts 45°
2026-05-06 19:14 26.01427 -79.75505 19258 ft 419 kts 45°
2026-05-06 19:14 26.03352 -79.73045 19882 ft 425 kts 45°
2026-05-06 19:14 26.05306 -79.70547 20493 ft 430 kts 45°
2026-05-06 19:15 26.07282 -79.68019 21112 ft 436 kts 45°
2026-05-06 19:15 26.09282 -79.65462 21724 ft 441 kts 45°
2026-05-06 19:15 26.11284 -79.62858 22297 ft 447 kts 47°
2026-05-06 19:15 26.13164 -79.60071 22848 ft 453 kts 50°
2026-05-06 19:16 26.14943 -79.57207 23371 ft 459 kts 51°
2026-05-06 19:16 26.16739 -79.54254 23872 ft 464 kts 51°
2026-05-06 19:16 26.18568 -79.51276 24367 ft 468 kts 51°
2026-05-06 19:16 26.20434 -79.48286 24874 ft 472 kts 50°
2026-05-06 19:17 26.22333 -79.45277 25406 ft 475 kts 50°
2026-05-06 19:17 26.24243 -79.42266 25928 ft 477 kts 50°
2026-05-06 19:17 26.26164 -79.39237 26402 ft 480 kts 50°
2026-05-06 19:17 26.28108 -79.36201 26865 ft 481 kts 47°
2026-05-06 19:18 26.30416 -79.33539 27250 ft 475 kts 32°
2026-05-06 19:18 26.33166 -79.31558 27616 ft 472 kts 27°
2026-05-06 19:18 26.35979 -79.29660 28018 ft 476 kts 26°
2026-05-06 19:18 26.38819 -79.27738 28455 ft 478 kts 27°
2026-05-06 19:19 26.41657 -79.25788 28913 ft 480 kts 27°
2026-05-06 19:19 26.44495 -79.23805 29336 ft 482 kts 27°
2026-05-06 19:19 26.47331 -79.21799 29694 ft 484 kts 27°
2026-05-06 19:19 26.50177 -79.19771 30045 ft 487 kts 27°
2026-05-06 19:20 26.53030 -79.17732 30422 ft 488 kts 27°
2026-05-06 19:20 26.55889 -79.15683 30883 ft 487 kts 27°
2026-05-06 19:20 26.58735 -79.13642 31405 ft 485 kts 27°
2026-05-06 19:20 26.61568 -79.11611 31906 ft 483 kts 27°
2026-05-06 19:21 26.64393 -79.09587 32336 ft 482 kts 27°
2026-05-06 19:21 26.67215 -79.07565 32746 ft 482 kts 27°
2026-05-06 19:21 26.70039 -79.05542 33182 ft 481 kts 27°
2026-05-06 19:21 26.72851 -79.03526 33601 ft 480 kts 27°
2026-05-06 19:22 26.75655 -79.01513 34049 ft 478 kts 27°
2026-05-06 19:22 26.78451 -78.99505 34455 ft 477 kts 27°
2026-05-06 19:22 26.81241 -78.97501 34811 ft 477 kts 27°
2026-05-06 19:22 26.84038 -78.95491 35158 ft 478 kts 27°
2026-05-06 19:23 26.86827 -78.93483 35519 ft 477 kts 26°
2026-05-06 19:23 26.88676 -78.92153 35747 ft 477 kts 26°
2026-05-06 19:23 26.91466 -78.90144 36093 ft 476 kts 26°
2026-05-06 19:23 26.94243 -78.88122 36357 ft 477 kts 27°
2026-05-06 19:24 26.97027 -78.86089 36602 ft 477 kts 26°
2026-05-06 19:24 26.99814 -78.84085 36989 ft 474 kts 26°
2026-05-06 19:24 27.02592 -78.82095 37101 ft 476 kts 26°
2026-05-06 19:25 27.08128 -78.78114 37092 ft 469 kts 26°
2026-05-06 19:25 27.13596 -78.74163 37104 ft 466 kts 26°
2026-05-06 19:26 27.19042 -78.70221 37105 ft 465 kts 26°
2026-05-06 19:26 27.24478 -78.66279 37099 ft 465 kts 26°
2026-05-06 19:27 27.30082 -78.63015 37092 ft 446 kts
2026-05-06 19:27 27.36159 -78.62240 37108 ft 444 kts 360°
2026-05-06 19:28 27.42368 -78.61523 37108 ft 450 kts
2026-05-06 19:28 27.48599 -78.60736 37097 ft 451 kts
2026-05-06 19:29 27.54823 -78.59924 37097 ft 450 kts
2026-05-06 19:29 27.61029 -78.59113 37097 ft 448 kts
2026-05-06 19:30 27.67205 -78.58308 37100 ft 446 kts
2026-05-06 19:30 27.73365 -78.57506 37095 ft 445 kts
2026-05-06 19:31 27.79510 -78.56706 37084 ft 444 kts
2026-05-06 19:31 27.88705 -78.55509 37098 ft 443 kts
2026-05-06 19:32 27.94824 -78.54708 37085 ft 443 kts
2026-05-06 19:32 27.97888 -78.54307 37099 ft 442 kts
2026-05-06 19:33 28.07716 -78.53018 37081 ft 442 kts
2026-05-06 19:33 28.13838 -78.52217 37082 ft 443 kts
2026-05-06 19:34 28.19964 -78.51414 37085 ft 444 kts
2026-05-06 19:34 28.26110 -78.50603 37083 ft 445 kts
2026-05-06 19:35 28.32271 -78.49794 37081 ft 446 kts
2026-05-06 19:35 28.38430 -78.48984 37085 ft 446 kts
2026-05-06 19:36 28.44590 -78.48170 37085 ft 446 kts
2026-05-06 19:36 28.50750 -78.47354 37083 ft 445 kts
2026-05-06 19:37 28.56909 -78.46541 37082 ft 446 kts
2026-05-06 19:37 28.62028 -78.45863 37098 ft 446 kts 360°
2026-05-06 19:38 28.69228 -78.44910 37071 ft 446 kts 360°
2026-05-06 19:38 28.75387 -78.44095 37073 ft 446 kts 360°
2026-05-06 19:39 28.80505 -78.43413 37075 ft 445 kts 360°
2026-05-06 19:39 28.86663 -78.42593 37074 ft 446 kts 360°
2026-05-06 19:40 28.92819 -78.41772 37077 ft 445 kts 359°
2026-05-06 19:40 28.98967 -78.40953 37074 ft 445 kts 359°
2026-05-06 19:41 29.05118 -78.40134 37075 ft 445 kts 359°
2026-05-06 19:41 29.11276 -78.39310 37074 ft 445 kts 359°
2026-05-06 19:42 29.17429 -78.38486 37075 ft 445 kts 359°
2026-05-06 19:42 29.23584 -78.37661 37077 ft 446 kts 359°
2026-05-06 19:43 29.29754 -78.36833 37071 ft 446 kts 359°
2026-05-06 19:43 29.35915 -78.36007 37075 ft 446 kts 359°
2026-05-06 19:44 29.42077 -78.35178 37072 ft 445 kts 359°
2026-05-06 19:44 29.48222 -78.34359 37074 ft 443 kts 358°
2026-05-06 19:45 29.54292 -78.34462 37079 ft 433 kts 348°
2026-05-06 19:45 29.60290 -78.35049 37073 ft 433 kts 348°
2026-05-06 19:46 29.66303 -78.35587 37075 ft 434 kts 349°
2026-05-06 19:46 29.72337 -78.36054 37075 ft 435 kts 349°
2026-05-06 19:47 29.78379 -78.36498 37074 ft 435 kts 349°
2026-05-06 19:47 29.84430 -78.36944 37074 ft 436 kts 349°
2026-05-06 19:48 29.90482 -78.37391 37075 ft 436 kts 349°
2026-05-06 19:48 29.96542 -78.37839 37073 ft 436 kts 349°
2026-05-06 19:49 30.02594 -78.38289 37076 ft 436 kts 349°
2026-05-06 19:49 30.08643 -78.38739 37073 ft 435 kts 349°
2026-05-06 19:50 30.14722 -78.38894 37076 ft 441 kts 355°
2026-05-06 19:50 30.20872 -78.38045 37069 ft 446 kts 360°
2026-05-06 19:51 30.26985 -78.37071 37063 ft 446 kts 359°
2026-05-06 19:51 30.33134 -78.36128 37066 ft 446 kts 359°
2026-05-06 19:52 30.39276 -78.35199 37063 ft 445 kts 359°
2026-05-06 19:52 30.45398 -78.34057 37062 ft 448 kts
2026-05-06 19:53 30.51510 -78.32621 37068 ft 448 kts
2026-05-06 19:53 30.57611 -78.31176 37075 ft 447 kts
2026-05-06 19:54 30.63713 -78.29753 37075 ft 447 kts
2026-05-06 19:54 30.69811 -78.28338 37074 ft 447 kts
2026-05-06 19:55 30.75911 -78.26921 37074 ft 447 kts
2026-05-06 19:55 30.82015 -78.25502 37074 ft 447 kts
2026-05-06 19:56 30.88122 -78.24080 37076 ft 448 kts
2026-05-06 19:56 30.94230 -78.22654 37074 ft 448 kts
2026-05-06 19:57 31.00345 -78.21283 37067 ft 447 kts
2026-05-06 19:57 31.06454 -78.19938 37060 ft 447 kts
2026-05-06 19:58 31.12527 -78.18584 37053 ft 447 kts
2026-05-06 19:58 31.18666 -78.17210 37056 ft 446 kts
2026-05-06 19:59 31.24768 -78.15847 37051 ft 446 kts
2026-05-06 19:59 31.30858 -78.14482 37046 ft 446 kts
2026-05-06 20:00 31.36910 -78.13124 37050 ft 445 kts
2026-05-06 20:00 31.42985 -78.11759 37048 ft 444 kts
2026-05-06 20:01 31.49052 -78.10619 37045 ft 440 kts 359°
2026-05-06 20:01 31.55106 -78.09641 37047 ft 439 kts 359°
2026-05-06 20:02 31.61159 -78.08649 37051 ft 439 kts 359°
2026-05-06 20:02 31.67200 -78.07630 37044 ft 439 kts 359°
2026-05-06 20:03 31.73244 -78.06591 37043 ft 439 kts 359°
2026-05-06 20:03 31.79283 -78.05550 37033 ft 438 kts 359°
2026-05-06 20:04 31.85314 -78.04511 37037 ft 437 kts 359°
2026-05-06 20:04 31.91338 -78.03473 37038 ft 438 kts 359°
2026-05-06 20:05 31.97326 -78.02440 37040 ft 438 kts 359°
2026-05-06 20:05 32.03350 -78.01399 37033 ft 438 kts 359°
2026-05-06 20:06 32.09380 -78.00357 37028 ft 439 kts 359°
2026-05-06 20:06 32.15430 -77.99308 37027 ft 439 kts 359°
2026-05-06 20:07 32.21474 -77.98259 37028 ft 439 kts 359°
2026-05-06 20:07 32.27514 -77.97211 37028 ft 439 kts 359°
2026-05-06 20:08 32.33555 -77.96159 37040 ft 439 kts 359°
2026-05-06 20:08 32.39594 -77.95106 37032 ft 439 kts 359°
2026-05-06 20:09 32.45636 -77.94052 37039 ft 439 kts 359°
2026-05-06 20:09 32.51682 -77.92998 37042 ft 439 kts 359°
2026-05-06 20:10 32.57731 -77.91939 37034 ft 439 kts 359°
2026-05-06 20:10 32.63770 -77.90881 37035 ft 439 kts 359°
2026-05-06 20:11 32.69804 -77.89821 37032 ft 438 kts 359°
2026-05-06 20:11 32.75794 -77.88769 37041 ft 438 kts 359°
2026-05-06 20:12 32.81827 -77.87710 37047 ft 438 kts 359°
2026-05-06 20:12 32.87857 -77.86649 37034 ft 438 kts 359°
2026-05-06 20:13 32.93892 -77.85586 37034 ft 438 kts 359°
2026-05-06 20:13 32.99918 -77.84521 37031 ft 438 kts 359°
2026-05-06 20:14 33.05959 -77.83452 37033 ft 439 kts 359°
2026-05-06 20:14 33.12007 -77.82377 37037 ft 439 kts 359°
2026-05-06 20:15 33.18054 -77.81305 37029 ft 440 kts 358°
2026-05-06 20:15 33.24111 -77.80232 37039 ft 440 kts 358°
2026-05-06 20:16 33.30174 -77.79152 37039 ft 441 kts 358°
2026-05-06 20:16 33.36235 -77.78075 37040 ft 440 kts 358°
2026-05-06 20:17 33.42291 -77.76994 37033 ft 440 kts 358°
2026-05-06 20:17 33.48351 -77.75911 37040 ft 440 kts 358°
2026-05-06 20:18 33.54389 -77.74809 37023 ft 438 kts 359°
2026-05-06 20:18 33.60428 -77.73705 37041 ft 439 kts 358°
2026-05-06 20:19 33.66498 -77.72672 37035 ft 441 kts 358°
2026-05-06 20:19 33.72567 -77.71491 37033 ft 443 kts 360°
2026-05-06 20:20 33.78595 -77.70150 37034 ft 443 kts
2026-05-06 20:20 33.84656 -77.68791 37035 ft 442 kts 360°
2026-05-06 20:21 33.90714 -77.67457 37039 ft 443 kts 360°
2026-05-06 20:21 33.96777 -77.66127 37043 ft 442 kts 360°
2026-05-06 20:22 34.02828 -77.64797 37026 ft 442 kts 359°
2026-05-06 20:22 34.08886 -77.63473 37025 ft 442 kts 360°
2026-05-06 20:23 34.14941 -77.62147 37020 ft 443 kts 359°
2026-05-06 20:23 34.21010 -77.60812 37019 ft 443 kts 360°
2026-05-06 20:24 34.27082 -77.59470 37019 ft 443 kts 360°
2026-05-06 20:24 34.33108 -77.58141 37009 ft 444 kts 360°
2026-05-06 20:25 34.39183 -77.56796 37009 ft 445 kts 360°
2026-05-06 20:25 34.45274 -77.55449 37011 ft 445 kts 360°
2026-05-06 20:26 34.51354 -77.53780 37014 ft 456 kts
2026-05-06 20:26 34.57324 -77.50841 37006 ft 470 kts 15°
2026-05-06 20:27 34.63199 -77.47294 37013 ft 473 kts 15°
2026-05-06 20:27 34.69080 -77.43712 37010 ft 473 kts 15°
2026-05-06 20:28 34.74973 -77.40155 37004 ft 473 kts 15°
2026-05-06 20:28 34.80870 -77.36610 37007 ft 472 kts 15°
2026-05-06 20:29 34.85774 -77.33665 37012 ft 472 kts 15°
2026-05-06 20:29 34.91667 -77.30124 37021 ft 472 kts 15°
2026-05-06 20:30 35.00505 -77.24790 37017 ft 473 kts 15°
2026-05-06 20:31 35.06421 -77.21219 37020 ft 475 kts 15°
2026-05-06 20:31 35.13310 -77.17046 37021 ft 476 kts 15°
2026-05-06 20:32 35.19258 -77.13445 37017 ft 477 kts 15°
2026-05-06 20:32 35.24253 -77.10415 37014 ft 479 kts 15°
2026-05-06 20:33 35.30214 -77.06789 37007 ft 479 kts 15°
2026-05-06 20:33 35.36142 -77.03174 37003 ft 479 kts 15°
2026-05-06 20:34 35.42105 -76.99532 37001 ft 479 kts 15°
2026-05-06 20:34 35.48099 -76.95868 36993 ft 478 kts 15°
2026-05-06 20:35 35.54025 -76.92241 36990 ft 480 kts 15°
2026-05-06 20:35 35.59998 -76.88582 36991 ft 480 kts 15°
2026-05-06 20:36 35.65982 -76.84938 36990 ft 480 kts 15°
2026-05-06 20:36 35.71960 -76.81303 36989 ft 479 kts 15°
2026-05-06 20:37 35.77939 -76.77653 36993 ft 479 kts 15°
2026-05-06 20:37 35.83907 -76.74002 36987 ft 479 kts 15°
2026-05-06 20:38 35.89884 -76.70343 36981 ft 479 kts 15°
2026-05-06 20:38 35.95825 -76.66511 36978 ft 484 kts 17°
2026-05-06 20:39 36.01718 -76.62475 36974 ft 484 kts 18°
2026-05-06 20:39 36.07611 -76.58441 36979 ft 485 kts 17°
2026-05-06 20:40 36.13524 -76.54428 36983 ft 485 kts 17°
2026-05-06 20:40 36.19451 -76.50411 36979 ft 486 kts 17°
2026-05-06 20:41 36.25374 -76.46389 36981 ft 486 kts 17°
2026-05-06 20:41 36.31317 -76.42350 36973 ft 487 kts 17°
2026-05-06 20:42 36.37257 -76.38303 36964 ft 487 kts 17°
2026-05-06 20:42 36.43201 -76.34245 36962 ft 487 kts 17°
2026-05-06 20:43 36.49133 -76.30185 36962 ft 487 kts 17°
2026-05-06 20:43 36.55067 -76.26121 36953 ft 488 kts 17°
2026-05-06 20:44 36.61019 -76.22039 36952 ft 489 kts 17°
2026-05-06 20:44 36.66934 -76.17972 36958 ft 489 kts 17°
2026-05-06 20:45 36.72935 -76.13832 36951 ft 490 kts 18°
2026-05-06 20:45 36.78902 -76.09712 36953 ft 490 kts 17°
2026-05-06 20:46 36.84874 -76.05584 36941 ft 491 kts 18°
2026-05-06 20:46 36.90866 -76.01439 36948 ft 493 kts 18°
2026-05-06 20:47 36.96865 -75.97276 36950 ft 494 kts 18°
2026-05-06 20:47 37.02817 -75.93134 36933 ft 493 kts 18°
2026-05-06 20:48 37.08863 -75.89203 36941 ft 482 kts 12°
2026-05-06 20:48 37.15113 -75.86615 36944 ft 469 kts
2026-05-06 20:49 37.21423 -75.84498 36931 ft 470 kts
2026-05-06 20:49 37.27752 -75.82358 36918 ft 472 kts
2026-05-06 20:50 37.34093 -75.80169 36919 ft 473 kts
2026-05-06 20:50 37.40457 -75.77956 36912 ft 475 kts
2026-05-06 20:51 37.46833 -75.75728 36901 ft 477 kts
2026-05-06 20:51 37.53234 -75.73486 36899 ft 477 kts
2026-05-06 20:52 37.59631 -75.71244 36899 ft 477 kts
2026-05-06 20:52 37.66040 -75.68996 36896 ft 479 kts
2026-05-06 20:53 37.72479 -75.66725 36897 ft 481 kts
2026-05-06 20:53 37.78932 -75.64463 36904 ft 481 kts
2026-05-06 20:54 37.85273 -75.61367 36900 ft 497 kts 15°
2026-05-06 20:54 37.91254 -75.56706 36930 ft 510 kts 24°
2026-05-06 20:55 37.97044 -75.51517 36933 ft 512 kts 24°
2026-05-06 20:55 38.02890 -75.46389 36905 ft 511 kts 24°
2026-05-06 20:56 38.08791 -75.41370 36913 ft 509 kts 22°
2026-05-06 20:56 38.14728 -75.36589 36915 ft 509 kts 21°
2026-05-06 20:57 38.20704 -75.31740 36901 ft 507 kts 20°
2026-05-06 20:57 38.23790 -75.29688 36907 ft 494 kts 12°
2026-05-06 20:57 38.26957 -75.28130 36919 ft 484 kts
2026-05-06 20:58 38.33380 -75.26254 36907 ft 467 kts 356°
2026-05-06 20:58 38.39823 -75.25033 36908 ft 469 kts 356°
2026-05-06 20:59 38.46281 -75.23725 36888 ft 470 kts 357°
2026-05-06 20:59 38.52745 -75.22355 36892 ft 472 kts 358°
2026-05-06 21:00 38.59223 -75.20969 36892 ft 472 kts 358°
2026-05-06 21:00 38.65715 -75.19564 36874 ft 476 kts 360°
2026-05-06 21:00 38.68952 -75.18402 36874 ft 492 kts
2026-05-06 21:01 38.72116 -75.16597 36883 ft 504 kts 17°
2026-05-06 21:01 38.75120 -75.14199 36871 ft 518 kts 26°
2026-05-06 21:01 38.78008 -75.11398 36875 ft 520 kts 28°
2026-05-06 21:02 38.83688 -75.05629 36763 ft 522 kts 28°
2026-05-06 21:02 38.86573 -75.02724 35960 ft 530 kts 28°
2026-05-06 21:02 38.89485 -74.99828 35191 ft 529 kts 28°
2026-05-06 21:02 38.92413 -74.96940 34316 ft 531 kts 28°
2026-05-06 21:03 38.95356 -74.94050 33405 ft 534 kts 29°
2026-05-06 21:03 38.98315 -74.91143 32461 ft 537 kts 30°
2026-05-06 21:03 39.01284 -74.88221 31470 ft 539 kts 30°
2026-05-06 21:03 39.04269 -74.85276 30423 ft 542 kts 30°
2026-05-06 21:04 39.07246 -74.82331 29730 ft 536 kts 31°
2026-05-06 21:04 39.10184 -74.79418 29057 ft 530 kts 31°
2026-05-06 21:04 39.13040 -74.76456 28399 ft 526 kts 33°
2026-05-06 21:04 39.15826 -74.73433 27752 ft 520 kts 34°
2026-05-06 21:05 39.18547 -74.70429 27119 ft 513 kts 34°
2026-05-06 21:05 39.21202 -74.67500 26498 ft 507 kts 34°
2026-05-06 21:05 39.23885 -74.64561 25875 ft 503 kts 34°
2026-05-06 21:05 39.26545 -74.61666 25249 ft 498 kts 34°
2026-05-06 21:06 39.29189 -74.58799 24642 ft 494 kts 34°
2026-05-06 21:06 39.31811 -74.55957 24034 ft 491 kts 34°
2026-05-06 21:06 39.34416 -74.53130 23425 ft 487 kts 35°
2026-05-06 21:06 39.36992 -74.50330 22825 ft 483 kts 35°
2026-05-06 21:07 39.39553 -74.47540 22228 ft 479 kts 35°
2026-05-06 21:07 39.42093 -74.44770 21642 ft 476 kts 35°
2026-05-06 21:07 39.44607 -74.42026 21045 ft 472 kts 36°
2026-05-06 21:07 39.47109 -74.39293 20458 ft 469 kts 36°
2026-05-06 21:08 39.49590 -74.36580 19876 ft 465 kts 36°
2026-05-06 21:08 39.52060 -74.33878 19292 ft 462 kts 36°
2026-05-06 21:08 39.54507 -74.31202 18703 ft 459 kts 36°
2026-05-06 21:08 39.56935 -74.28539 18137 ft 456 kts 36°
2026-05-06 21:09 39.59349 -74.25889 17628 ft 452 kts 36°
2026-05-06 21:09 39.61729 -74.23276 17225 ft 447 kts 36°
2026-05-06 21:09 39.64089 -74.20683 16959 ft 444 kts 36°
2026-05-06 21:09 39.66452 -74.18086 16586 ft 447 kts 36°
2026-05-06 21:10 39.68721 -74.15589 16217 ft 447 kts 36°
2026-05-06 21:10 39.71080 -74.12988 15813 ft 444 kts 36°
2026-05-06 21:10 39.73425 -74.10398 15414 ft 440 kts 36°
2026-05-06 21:10 39.75748 -74.07830 15017 ft 437 kts 36°
2026-05-06 21:11 39.78055 -74.05277 14634 ft 433 kts 36°
2026-05-06 21:11 39.80345 -74.02745 14236 ft 431 kts 36°
2026-05-06 21:11 39.82624 -74.00223 13848 ft 429 kts 36°
2026-05-06 21:11 39.84929 -73.97818 13443 ft 420 kts 29°
2026-05-06 21:12 39.87418 -73.95886 13083 ft 413 kts 22°
2026-05-06 21:12 39.89956 -73.94201 12720 ft 407 kts 21°
2026-05-06 21:12 39.92449 -73.92576 12334 ft 390 kts 21°
2026-05-06 21:12 39.94785 -73.90999 11976 ft 368 kts 22°
2026-05-06 21:13 39.96984 -73.89463 11651 ft 349 kts 22°
2026-05-06 21:13 39.99069 -73.87987 11335 ft 334 kts 22°
2026-05-06 21:13 40.01104 -73.86547 11073 ft 332 kts 23°
2026-05-06 21:13 40.03057 -73.84960 10951 ft 329 kts 32°
2026-05-06 21:14 40.04886 -73.83136 10905 ft 334 kts 34°
2026-05-06 21:14 40.06721 -73.81228 10863 ft 341 kts 35°
2026-05-06 21:14 40.08590 -73.79302 10795 ft 342 kts 35°
2026-05-06 21:14 40.10460 -73.77399 10716 ft 340 kts 34°
2026-05-06 21:15 40.12338 -73.75503 10643 ft 340 kts 34°
2026-05-06 21:15 40.14206 -73.73636 10595 ft 337 kts 34°
2026-05-06 21:15 40.16059 -73.71771 10525 ft 336 kts 34°
2026-05-06 21:15 40.17914 -73.69913 10471 ft 334 kts 34°
2026-05-06 21:16 40.19744 -73.68081 10412 ft 331 kts 34°
2026-05-06 21:16 40.21569 -73.66262 10350 ft 328 kts 34°
2026-05-06 21:16 40.23379 -73.64445 10285 ft 328 kts 35°
2026-05-06 21:16 40.25187 -73.62617 10235 ft 328 kts 35°
2026-05-06 21:17 40.26990 -73.60799 10180 ft 328 kts 35°
2026-05-06 21:17 40.28192 -73.59594 10136 ft 329 kts 35°
2026-05-06 21:17 40.30010 -73.57763 10082 ft 330 kts 36°
2026-05-06 21:17 40.31831 -73.55937 10016 ft 327 kts 33°
2026-05-06 21:18 40.33835 -73.54625 9852 ft 319 kts
2026-05-06 21:18 40.35982 -73.54060 9724 ft 318 kts
2026-05-06 21:18 40.38182 -73.53567 9540 ft 323 kts
2026-05-06 21:18 40.40404 -73.53068 9355 ft 326 kts
2026-05-06 21:19 40.43346 -73.52384 9089 ft 322 kts
2026-05-06 21:19 40.44829 -73.52034 8973 ft 320 kts
2026-05-06 21:19 40.47014 -73.51522 8786 ft 317 kts
2026-05-06 21:19 40.49183 -73.50994 8604 ft 318 kts
2026-05-06 21:20 40.51357 -73.50463 8433 ft 319 kts
2026-05-06 21:20 40.53536 -73.49926 8246 ft 318 kts
2026-05-06 21:20 40.55710 -73.49393 8063 ft 319 kts
2026-05-06 21:20 40.57893 -73.48872 7886 ft 320 kts
2026-05-06 21:21 40.60069 -73.48334 7697 ft 315 kts
2026-05-06 21:21 40.62203 -73.47806 7499 ft 310 kts
2026-05-06 21:21 40.64271 -73.47292 7320 ft 303 kts
2026-05-06 21:21 40.66330 -73.46786 7141 ft 300 kts
2026-05-06 21:22 40.68373 -73.46262 6969 ft 299 kts 10°
2026-05-06 21:22 40.70324 -73.45279 6726 ft 301 kts 23°
2026-05-06 21:22 40.72183 -73.44047 6496 ft 298 kts 24°
2026-05-06 21:22 40.74049 -73.42945 6216 ft 287 kts
2026-05-06 21:23 40.75945 -73.42895 5986 ft 263 kts 335°
2026-05-06 21:23 40.77523 -73.43884 5670 ft 243 kts 312°
2026-05-06 21:23 40.78747 -73.45344 5342 ft 231 kts 297°
2026-05-06 21:23 40.79621 -73.47050 5040 ft 221 kts 290°
2026-05-06 21:24 40.80406 -73.48784 4776 ft 219 kts 290°
2026-05-06 21:24 40.81193 -73.50513 4481 ft 220 kts 291°
2026-05-06 21:24 40.81935 -73.52214 4141 ft 205 kts 282°
2026-05-06 21:24 40.82099 -73.53908 3939 ft 174 kts 256°
2026-05-06 21:25 40.81853 -73.55402 3792 ft 162 kts 246°
2026-05-06 21:25 40.81495 -73.56819 3656 ft 163 kts 245°
2026-05-06 21:25 40.81126 -73.58234 3508 ft 163 kts 244°
2026-05-06 21:25 40.80753 -73.59647 3374 ft 163 kts 244°
2026-05-06 21:26 40.80385 -73.61060 3216 ft 160 kts 244°
2026-05-06 21:26 40.80010 -73.62370 3090 ft 141 kts 232°
2026-05-06 21:26 40.79315 -73.63212 2977 ft 135 kts 217°
2026-05-06 21:26 40.78565 -73.64012 2848 ft 141 kts 217°
2026-05-06 21:27 40.77776 -73.64822 2716 ft 146 kts 216°
2026-05-06 21:27 40.76963 -73.65615 2551 ft 144 kts 213°
2026-05-06 21:27 40.76137 -73.66335 2428 ft 142 kts 211°
2026-05-06 21:27 40.75273 -73.67038 2313 ft 152 kts 210°
2026-05-06 21:28 40.74351 -73.67769 2135 ft 156 kts 209°
2026-05-06 21:28 40.73433 -73.68495 1966 ft 148 kts 209°
2026-05-06 21:28 40.72605 -73.69145 1850 ft 131 kts 209°
2026-05-06 21:28 40.71840 -73.69745 1706 ft 127 kts 209°
2026-05-06 21:29 40.71069 -73.70352 1514 ft 130 kts 208°
2026-05-06 21:29 40.70298 -73.70958 1343 ft 131 kts 208°
2026-05-06 21:29 40.69512 -73.71574 1169 ft 134 kts 208°
2026-05-06 21:29 40.68983 -73.71989 1060 ft 134 kts 208°
2026-05-06 21:30 40.68220 -73.72589 874 ft 132 kts 208°
2026-05-06 21:30 40.67440 -73.73202 718 ft 131 kts 208°
2026-05-06 21:30 40.66670 -73.73806 544 ft 133 kts 208°
2026-05-06 21:30 40.65863 -73.74440 365 ft 132 kts 208°
2026-05-06 21:31 40.65065 -73.75050 165 ft 132 kts 209°
2026-05-06 21:31 40.64293 -73.75663 32 ft 126 kts 209°
2026-05-06 21:31 40.63635 -73.76165 26 ft 85 kts 210°
2026-05-06 21:31 40.63287 -73.76444 26 ft 32 kts 211°
2026-05-06 21:32 40.63118 -73.76585 23 ft 23 kts 217°
2026-05-06 21:32 40.62943 -73.76862 24 ft 17 kts 245°
2026-05-06 21:32 40.62948 -73.77006 25 ft 17 kts 296°
2026-05-06 21:33 40.63005 -73.77138 23 ft 17 kts 300°
2026-05-06 21:33 40.63064 -73.77268 25 ft 17 kts 301°
2026-05-06 21:33 40.63122 -73.77399 21 ft 17 kts 300°
2026-05-06 21:33 40.63180 -73.77529 25 ft 17 kts 301°
2026-05-06 21:34 40.63239 -73.77658 28 ft 17 kts 301°
2026-05-06 21:34 40.63299 -73.77788 25 ft 17 kts 301°
2026-05-06 21:34 40.63363 -73.77934 24 ft 18 kts 300°
2026-05-06 21:34 40.63427 -73.78081 24 ft 18 kts 300°
2026-05-06 21:35 40.63490 -73.78222 24 ft 18 kts 301°
2026-05-06 21:35 40.63554 -73.78364 25 ft 18 kts 301°
2026-05-06 21:35 40.63618 -73.78505 22 ft 18 kts 301°
2026-05-06 21:35 40.63679 -73.78639 23 ft 17 kts 300°
2026-05-06 21:36 40.63740 -73.78772 26 ft 17 kts 300°
2026-05-06 21:36 40.63800 -73.78909 25 ft 17 kts 301°
2026-05-06 21:36 40.63862 -73.79047 24 ft 17 kts 301°
2026-05-06 21:36 40.63926 -73.79182 25 ft 17 kts 301°
2026-05-06 21:37 40.63988 -73.79318 26 ft 17 kts 300°
2026-05-06 21:37 40.64042 -73.79436 24 ft 14 kts 304°
2026-05-06 21:37 40.64124 -73.79507 22 ft 15 kts 353°
2026-05-06 21:37 40.64226 -73.79502 23 ft 15 kts
2026-05-06 21:38 40.64330 -73.79493 24 ft 15 kts
2026-05-06 21:38 40.64437 -73.79494 21 ft 15 kts 356°
2026-05-06 21:38 40.64535 -73.79506 24 ft 14 kts 352°
2026-05-06 21:38 40.64620 -73.79542 24 ft 12 kts 329°
2026-05-06 21:39 40.64682 -73.79599 20 ft 10 kts 324°
2026-05-06 21:39 40.64717 -73.79628 24 ft 5 kts 341°
2026-05-06 21:39 40.64747 -73.79607 23 ft 5 kts 49°
2026-05-06 21:39 40.64769 -73.79562 21 ft 6 kts 58°
2026-05-06 21:40 40.64793 -73.79506 23 ft 7 kts 62°
2026-05-06 21:40 40.64816 -73.79452 20 ft 5 kts 60°
2026-05-06 21:40 40.64828 -73.79422 20 ft 4 kts 60°
2026-05-06 21:40 40.64831 -73.79386 24 ft 3 kts 120°
2026-05-06 21:41 40.64821 -73.79379 20 ft 2 kts 148°
2026-05-06 21:41 40.64806 -73.79367 20 ft 2 kts 149°
2026-05-06 21:41 40.64792 -73.79356 20 ft 3 kts 149°
2026-05-06 21:41 40.64782 -73.79349 20 ft 1 kts 151°
2026-05-06 21:42 40.64777 -73.79345 20 ft 1 kts 150°